DW4408 Weather Reports


time (UTC)temp
C
wind
direction
speed
KPH
gust
KPH
rain 1hr
cm
rain 24hr
cm
rain mn
cm
humidity
%
barometer
mb
20260504173039 12 324 3.2 16.1 0.00 0.05 0.00 33 1008.9
20260504171545 11 343 6.4 20.9 0.00 0.05 0.00 33 1008.9
20260504081525 12 32 0.0 4.8 0.00 0.05 0.00 33 1003.0
20260504050003 13 348 1.6 6.4 0.00 0.05 0.05 34 1004.7
20260504044511 14 360 1.6 8.0 0.00 0.05 0.05 34 1004.5
20260504043007 13 305 1.6 8.0 0.00 0.05 0.05 35 1004.6
20260504041502 13 335 1.6 8.0 0.00 0.05 0.05 37 1004.4
20260504040002 12 296 1.6 9.7 0.00 0.05 0.05 42 1004.7
20260504034501 11 17 0.0 1.6 0.00 0.05 0.05 49 1004.8
20260504033001 11 184 0.0 1.6 0.00 0.05 0.05 52 1004.8
20260504031501 11 153 0.0 0.0 0.00 0.05 0.05 52 1004.6
20260504030122 11 153 0.0 0.0 0.00 0.05 0.05 52 1004.4
20260504024602 11 149 0.0 1.6 0.00 0.05 0.05 52 1004.5
20260504023102 12 155 0.0 0.0 0.00 0.05 0.05 49 1004.3
20260504021559 13 155 0.0 0.0 0.00 0.05 0.05 47 1004.4
20260504020107 13 149 0.0 3.2 0.00 0.05 0.05 45 1004.4
20260504014604 15 151 0.0 1.6 0.00 0.05 0.05 43 1004.6
20260504013056 15 160 0.0 3.2 0.00 0.05 0.05 40 1004.8
20260504011553 16 146 0.0 3.2 0.00 0.05 0.05 39 1005.0
20260504010052 16 151 0.0 1.6 0.00 0.05 0.05 37 1005.3
20260504004551 16 14 0.0 4.8 0.00 0.05 0.05 37 1005.5
20260504003048 17 190 0.0 3.2 0.00 0.05 0.05 34 1005.6
20260504001600 17 179 0.0 8.0 0.00 0.05 0.05 34 1005.8
20260504000047 17 328 1.6 6.4 0.00 0.05 0.05 35 1006.2
20260503234543 17 167 1.6 8.0 0.00 0.05 0.05 36 1006.4
20260503233041 17 126 1.6 8.0 0.00 0.05 0.05 37 1006.6
20260503231540 17 298 0.0 4.8 0.00 0.05 0.05 40 1006.7
20260503230042 16 174 1.6 8.0 0.00 0.05 0.05 47 1006.9
20260503224535 15 150 0.0 3.2 0.00 0.05 0.05 49 1007.4
20260503223032 15 332 0.0 1.6 0.00 0.05 0.05 43 1008.1
20260503221531 15 99 0.0 4.8 0.00 0.05 0.05 45 1008.2
20260503220030 15 304 0.0 4.8 0.00 0.05 0.05 50 1008.4
20260503214531 13 103 0.0 0.0 0.03 0.05 0.05 61 1008.5
20260503213034 12 9 0.0 4.8 0.03 0.05 0.05 60 1008.8
20260503211533 13 9 0.0 3.2 0.03 0.05 0.05 58 1009.0
20260503210025 15 28 0.0 4.8 0.03 0.05 0.05 53 1009.0
20260503204525 16 254 0.0 0.0 0.00 0.03 0.03 40 1009.1
20260503203024 16 163 0.0 0.0 0.00 0.03 0.03 43 1008.6
20260503201524 15 326 0.0 0.0 0.03 0.03 0.03 49 1008.6
20260503200022 16 96 0.0 0.0 0.03 0.03 0.03 46 1009.0
20260503194520 16 111 0.0 1.6 0.03 0.03 0.03 47 1009.5
20260503193019 17 17 0.0 3.2 0.03 0.03 0.03 46 1009.4
20260503191518 17 249 0.0 0.0 0.00 0.00 0.00 32 1009.5
20260503190039 18 240 0.0 9.7 0.00 0.00 0.00 31 1009.5
20260503184516 17 159 0.0 3.2 0.00 0.00 0.00 38 1009.7
20260503183016 17 186 0.0 4.8 0.00 0.00 0.00 41 1010.1
20260503181511 18 320 0.0 4.8 0.00 0.00 0.00 32 1010.5
20260503180013 19 140 0.0 4.8 0.00 0.00 0.00 24 1010.4
20260503174508 18 302 0.0 8.0 0.00 0.00 0.00 26 1010.5